QPF
0.00 0.00 0.00 0.00 0.00 0.00 0.00 0.00 0.00 0.00 0.00 0.01 0.02 0.01 0.01 0.00 0.00 0.00 0.00 0.00 0.00 0.00 0.00 0.01 0.01 0.03 0.03 0.05 0.06 0.06 0.07 0.04 0.04 0.05 0.05 0.04 0.05 0.05 0.06 0.05 0.05 0.06 0.06 0.06
0.00 0.00 0.00 0.00 0.00 0.00 0.00 0.00 0.01 0.01 0.00 0.01 0.02 0.02 0.01 0.00 0.00 0.00 0.00 0.00 0.00 0.00 0.00 0.01 0.01 0.03 0.05 0.06 0.08 0.09 0.09 0.07 0.05 0.04 0.05 0.05 0.03 0.03 0.03 0.03 0.04 0.06 0.06 0.06
0.00 0.00 0.00 0.00 0.00 0.01 0.00 0.00 0.00 0.01 0.01 0.01 0.03 0.05 0.05 0.02 0.00 0.00 0.01 0.00 0.00 0.00 0.00 0.01 0.02 0.01 0.03 0.04 0.05 0.08 0.08 0.07 0.05 0.02 0.02 0.02 0.03 0.03 0.04 0.03 0.03 0.04 0.05 0.05
0.00 0.00 0.00 0.00 0.00 0.01 0.01 0.00 0.00 0.01 0.02 0.03 0.03 0.09 0.07 0.02 0.01 0.01 0.01 0.01 0.01 0.00 0.01 0.01 0.01 0.01 0.01 0.01 0.02 0.05 0.07 0.06 0.04 0.03 0.02 0.02 0.03 0.04 0.04 0.04 0.04 0.04 0.04 0.04
0.00 0.00 0.00 0.01 0.01 0.00 0.00 0.00 0.00 0.00 0.02 0.03 0.03 0.05 0.06 0.04 0.04 0.02 0.00 0.01 0.02 0.01 0.01 0.02 0.01 0.02 0.02 0.01 0.01 0.02 0.04 0.05 0.04 0.04 0.03 0.03 0.03 0.03 0.04 0.04 0.04 0.04 0.04 0.03
0.00 0.00 0.00 0.00 0.00 0.00 0.00 0.00 0.01 0.01 0.02 0.04 0.03 0.04 0.05 0.04 0.03 0.01 0.00 0.01 0.01 0.02 0.02 0.01 0.01 0.02 0.02 0.01 0.01 0.01 0.02 0.03 0.03 0.04 0.04 0.04 0.03 0.03 0.03 0.04 0.04 0.04 0.03 0.03
0.00 0.00 0.00 0.00 0.00 0.00 0.01 0.02 0.04 0.05 0.05 0.04 0.02 0.03 0.04 0.03 0.01 0.01 0.00 0.01 0.02 0.02 0.01 0.01 0.02 0.03 0.06 0.05 0.02 0.03 0.03 0.03 0.03 0.03 0.03 0.03 0.02 0.03 0.03 0.03 0.03 0.03 0.03 0.02
0.01 0.01 0.00 0.00 0.00 0.00 0.00 0.02 0.04 0.05 0.04 0.05 0.05 0.05 0.05 0.02 0.01 0.00 0.00 0.01 0.01 0.02 0.02 0.02 0.02 0.03 0.04 0.04 0.03 0.04 0.05 0.04 0.04 0.04 0.03 0.03 0.03 0.02 0.03 0.03 0.02 0.03 0.02 0.02
0.01 0.02 0.01 0.00 0.00 0.00 0.00 0.00 0.00 0.02 0.02 0.03 0.05 0.05 0.05 0.03 0.02 0.01 0.01 0.02 0.03 0.03 0.01 0.01 0.02 0.02 0.03 0.03 0.03 0.03 0.03 0.04 0.04 0.03 0.02 0.02 0.02 0.01 0.02 0.03 0.04 0.03 0.03 0.02
0.00 0.01 0.01 0.00 0.00 0.00 0.00 0.00 0.01 0.03 0.03 0.03 0.04 0.08 0.07 0.04 0.02 0.01 0.02 0.02 0.04 0.03 0.01 0.01 0.01 0.02 0.02 0.03 0.03 0.03 0.02 0.03 0.03 0.03 0.03 0.03 0.02 0.02 0.02 0.03 0.03 0.02 0.02 0.02
0.00 0.00 0.01 0.01 0.01 0.01 0.01 0.00 0.01 0.03 0.03 0.03 0.04 0.06 0.05 0.03 0.02 0.01 0.02 0.02 0.02 0.01 0.02 0.02 0.02 0.03 0.02 0.03 0.03 0.03 0.03 0.04 0.04 0.04 0.04 0.04 0.04 0.04 0.04 0.03 0.02 0.03 0.03 0.03
0.00 0.00 0.01 0.01 0.03 0.02 0.01 0.00 0.01 0.03 0.04 0.04 0.06 0.06 0.04 0.04 0.04 0.01 0.01 0.01 0.01 0.02 0.02 0.01 0.02 0.03 0.03 0.03 0.03 0.04 0.04 0.04 0.05 0.05 0.05 0.05 0.06 0.06 0.05 0.04 0.03 0.03 0.04 0.03
0.00 0.00 0.01 0.02 0.03 0.03 0.01 0.00 0.00 0.01 0.03 0.05 0.08 0.08 0.09 0.09 0.05 0.01 0.01 0.01 0.02 0.02 0.02 0.02 0.02 0.03 0.04 0.04 0.04 0.04 0.04 0.05 0.05 0.06 0.06 0.07 0.07 0.07 0.07 0.07 0.06 0.05 0.04 0.03
0.00 0.00 0.01 0.03 0.04 0.04 0.01 0.01 0.00 0.01 0.06 0.08 0.08 0.10 0.13 0.09 0.05 0.03 0.03 0.03 0.02 0.02 0.03 0.04 0.03 0.03 0.05 0.08 0.08 0.06 0.05 0.05 0.05 0.05 0.05 0.06 0.08 0.08 0.07 0.07 0.07 0.06 0.05 0.05
0.00 0.00 0.00 0.01 0.01 0.02 0.01 0.00 0.00 0.01 0.02 0.03 0.04 0.09 0.10 0.08 0.05 0.04 0.03 0.04 0.04 0.03 0.03 0.03 0.03 0.04 0.04 0.07 0.08 0.05 0.04 0.04 0.04 0.04 0.04 0.04 0.05 0.05 0.05 0.06 0.06 0.07 0.07 0.05
0.01 0.01 0.01 0.01 0.01 0.01 0.01 0.01 0.00 0.00 0.00 0.01 0.04 0.06 0.04 0.04 0.05 0.05 0.05 0.06 0.06 0.03 0.02 0.02 0.03 0.04 0.06 0.06 0.06 0.04 0.04 0.04 0.03 0.04 0.02 0.02 0.02 0.03 0.03 0.03 0.04 0.06 0.08 0.08
0.02 0.03 0.03 0.03 0.02 0.02 0.04 0.03 0.01 0.01 0.00 0.01 0.03 0.04 0.04 0.03 0.04 0.04 0.06 0.08 0.08 0.05 0.03 0.03 0.03 0.03 0.04 0.05 0.05 0.06 0.04 0.02 0.01 0.01 0.01 0.01 0.01 0.02 0.03 0.04 0.07 0.11 0.13 0.12
0.02 0.04 0.04 0.04 0.05 0.07 0.05 0.03 0.02 0.01 0.01 0.01 0.01 0.02 0.03 0.03 0.03 0.04 0.07 0.13 0.19 0.12 0.06 0.03 0.01 0.02 0.03 0.04 0.04 0.04 0.03 0.02 0.02 0.01 0.01 0.01 0.01 0.02 0.02 0.03 0.04 0.09 0.10 0.11
0.01 0.03 0.04 0.05 0.08 0.07 0.06 0.04 0.03 0.03 0.04 0.02 0.02 0.02 0.03 0.02 0.04 0.05 0.05 0.07 0.14 0.15 0.09 0.04 0.01 0.02 0.03 0.03 0.04 0.03 0.02 0.01 0.01 0.02 0.03 0.01 0.01 0.02 0.03 0.04 0.04 0.06 0.07 0.07
0.01 0.02 0.04 0.04 0.08 0.09 0.06 0.03 0.02 0.03 0.05 0.03 0.02 0.02 0.02 0.04 0.08 0.08 0.05 0.05 0.05 0.08 0.06 0.04 0.02 0.02 0.03 0.03 0.03 0.03 0.03 0.03 0.03 0.02 0.01 0.01 0.02 0.03 0.04 0.05 0.05 0.06 0.06 0.05
0.03 0.03 0.03 0.04 0.06 0.08 0.03 0.01 0.01 0.04 0.06 0.03 0.01 0.01 0.02 0.04 0.07 0.06 0.05 0.04 0.04 0.03 0.03 0.03 0.03 0.04 0.04 0.06 0.06 0.05 0.04 0.04 0.03 0.02 0.02 0.02 0.03 0.03 0.04 0.05 0.05 0.05 0.05 0.05
0.04 0.04 0.04 0.04 0.06 0.07 0.03 0.02 0.03 0.04 0.03 0.02 0.02 0.01 0.01 0.02 0.03 0.03 0.04 0.05 0.05 0.04 0.03 0.04 0.05 0.07 0.10 0.09 0.07 0.06 0.05 0.03 0.03 0.03 0.03 0.03 0.04 0.04 0.05 0.06 0.06 0.06 0.08 0.08
0.03 0.04 0.04 0.05 0.07 0.06 0.05 0.03 0.03 0.02 0.02 0.02 0.02 0.02 0.01 0.01 0.02 0.02 0.03 0.04 0.04 0.04 0.04 0.04 0.05 0.07 0.11 0.10 0.09 0.09 0.11 0.08 0.05 0.05 0.05 0.05 0.05 0.05 0.05 0.07 0.09 0.07 0.08 0.09
0.03 0.02 0.03 0.05 0.06 0.05 0.05 0.02 0.01 0.01 0.02 0.01 0.02 0.03 0.01 0.01 0.01 0.01 0.01 0.02 0.03 0.04 0.04 0.04 0.05 0.07 0.09 0.08 0.06 0.06 0.07 0.06 0.06 0.07 0.08 0.08 0.08 0.06 0.06 0.07 0.09 0.07 0.06 0.07
0.03 0.02 0.03 0.04 0.04 0.04 0.05 0.04 0.02 0.02 0.02 0.01 0.02 0.03 0.01 0.01 0.01 0.01 0.01 0.01 0.02 0.03 0.04 0.05 0.07 0.10 0.10 0.07 0.05 0.04 0.04 0.05 0.07 0.06 0.06 0.07 0.06 0.05 0.05 0.05 0.05 0.06 0.04 0.03
0.02 0.03 0.04 0.04 0.04 0.04 0.06 0.06 0.05 0.04 0.03 0.03 0.02 0.03 0.01 0.00 0.00 0.00 0.01 0.02 0.01 0.02 0.03 0.04 0.06 0.08 0.09 0.08 0.06 0.05 0.05 0.04 0.05 0.05 0.05 0.05 0.04 0.04 0.04 0.04 0.03 0.06 0.06 0.03
MSLP
1005.13 1005.40 1005.59 1005.70 1005.75 1005.73 1005.65 1005.50 1005.27 1004.93 1004.47 1003.90 1003.23 1002.49 1001.73 1001.00 1000.35 999.79 999.31 998.92 998.57 998.23 997.88 997.53 997.19 996.92 996.77 996.80 997.06 997.55 998.28 999.19 1000.22 1001.27 1002.29 1003.21 1004.00 1004.65 1005.18 1005.64 1006.05 1006.47 1006.93 1007.42
1005.50 1005.66 1005.76 1005.81 1005.82 1005.80 1005.75 1005.64 1005.45 1005.15 1004.70 1004.10 1003.37 1002.55 1001.68 1000.84 1000.06 999.40 998.84 998.39 997.99 997.63 997.27 996.91 996.56 996.28 996.11 996.13 996.38 996.89 997.65 998.61 999.71 1000.84 1001.94 1002.93 1003.78 1004.46 1005.00 1005.44 1005.83 1006.21 1006.63 1007.10
1005.79 1005.84 1005.85 1005.84 1005.83 1005.83 1005.82 1005.78 1005.66 1005.42 1005.01 1004.42 1003.67 1002.79 1001.85 1000.90 1000.02 999.24 998.59 998.04 997.58 997.16 996.75 996.34 995.96 995.63 995.42 995.40 995.62 996.12 996.88 997.87 999.01 1000.21 1001.38 1002.44 1003.35 1004.08 1004.65 1005.11 1005.50 1005.88 1006.28 1006.74
1005.98 1005.94 1005.88 1005.83 1005.81 1005.84 1005.89 1005.94 1005.91 1005.76 1005.43 1004.90 1004.17 1003.28 1002.28 1001.27 1000.30 999.42 998.66 998.02 997.46 996.96 996.47 996.00 995.54 995.15 994.87 994.78 994.94 995.38 996.10 997.06 998.20 999.41 1000.62 1001.73 1002.70 1003.49 1004.12 1004.62 1005.05 1005.45 1005.88 1006.34
1006.12 1006.01 1005.89 1005.81 1005.80 1005.87 1005.99 1006.13 1006.21 1006.17 1005.94 1005.49 1004.82 1003.97 1002.98 1001.93 1000.91 999.96 999.11 998.37 997.72 997.13 996.56 996.01 995.47 995.00 994.64 994.46 994.52 994.85 995.47 996.35 997.41 998.58 999.76 1000.88 1001.87 1002.71 1003.40 1003.97 1004.46 1004.92 1005.39 1005.89
1006.28 1006.12 1005.96 1005.87 1005.86 1005.96 1006.13 1006.35 1006.52 1006.58 1006.46 1006.12 1005.55 1004.77 1003.83 1002.81 1001.78 1000.79 999.90 999.10 998.38 997.72 997.08 996.46 995.86 995.31 994.86 994.57 994.50 994.69 995.16 995.88 996.79 997.84 998.92 999.98 1000.96 1001.81 1002.55 1003.18 1003.75 1004.28 1004.82 1005.38
1006.55 1006.35 1006.17 1006.05 1006.03 1006.12 1006.31 1006.56 1006.79 1006.93 1006.91 1006.68 1006.22 1005.55 1004.70 1003.76 1002.77 1001.81 1000.91 1000.09 999.35 998.65 997.98 997.32 996.68 996.08 995.55 995.17 994.96 994.99 995.26 995.77 996.47 997.32 998.23 999.16 1000.05 1000.87 1001.61 1002.29 1002.92 1003.54 1004.15 1004.78
1007.00 1006.79 1006.57 1006.41 1006.33 1006.37 1006.52 1006.73 1006.96 1007.13 1007.17 1007.03 1006.69 1006.15 1005.43 1004.61 1003.72 1002.84 1001.99 1001.21 1000.48 999.79 999.13 998.48 997.84 997.22 996.65 996.19 995.86 995.72 995.79 996.06 996.50 997.09 997.77 998.51 999.25 999.98 1000.68 1001.36 1002.03 1002.70 1003.39 1004.08
1007.65 1007.42 1007.16 1006.93 1006.77 1006.70 1006.73 1006.85 1007.00 1007.13 1007.19 1007.11 1006.87 1006.46 1005.90 1005.23 1004.48 1003.72 1002.97 1002.26 1001.59 1000.96 1000.35 999.74 999.13 998.53 997.97 997.46 997.06 996.77 996.65 996.68 996.86 997.17 997.59 998.08 998.63 999.21 999.82 1000.46 1001.13 1001.82 1002.55 1003.30
1008.46 1008.22 1007.91 1007.60 1007.31 1007.08 1006.94 1006.89 1006.91 1006.95 1006.96 1006.91 1006.75 1006.46 1006.06 1005.55 1004.97 1004.35 1003.73 1003.12 1002.54 1001.98 1001.43 1000.89 1000.35 999.81 999.28 998.78 998.33 997.96 997.68 997.51 997.45 997.50 997.65 997.90 998.22 998.63 999.11 999.66 1000.28 1000.96 1001.68 1002.45
1009.32 1009.08 1008.73 1008.32 1007.89 1007.48 1007.14 1006.88 1006.72 1006.62 1006.56 1006.49 1006.39 1006.21 1005.95 1005.60 1005.19 1004.72 1004.22 1003.72 1003.22 1002.73 1002.25 1001.78 1001.32 1000.85 1000.38 999.93 999.49 999.08 998.72 998.41 998.17 998.01 997.93 997.95 998.06 998.28 998.60 999.03 999.56 1000.18 1000.87 1001.61
1010.09 1009.87 1009.50 1009.01 1008.45 1007.87 1007.33 1006.87 1006.51 1006.26 1006.10 1006.01 1005.93 1005.84 1005.71 1005.51 1005.24 1004.91 1004.52 1004.10 1003.66 1003.22 1002.78 1002.36 1001.96 1001.55 1001.16 1000.77 1000.38 999.99 999.61 999.24 998.89 998.59 998.35 998.19 998.12 998.16 998.33 998.63 999.04 999.56 1000.18 1000.86
1010.64 1010.46 1010.09 1009.56 1008.92 1008.21 1007.51 1006.88 1006.36 1005.98 1005.73 1005.60 1005.55 1005.53 1005.50 1005.43 1005.28 1005.06 1004.75 1004.38 1003.97 1003.54 1003.11 1002.70 1002.31 1001.95 1001.62 1001.29 1000.97 1000.63 1000.28 999.92 999.54 999.18 998.85 998.57 998.38 998.29 998.32 998.49 998.78 999.18 999.69 1000.28
1010.86 1010.74 1010.41 1009.90 1009.23 1008.47 1007.68 1006.94 1006.32 1005.85 1005.55 1005.40 1005.37 1005.41 1005.47 1005.50 1005.45 1005.30 1005.05 1004.70 1004.28 1003.82 1003.35 1002.91 1002.51 1002.15 1001.84 1001.56 1001.30 1001.04 1000.75 1000.44 1000.10 999.74 999.39 999.07 998.81 998.63 998.56 998.61 998.78 999.07 999.46 999.92
1010.70 1010.66 1010.41 1009.97 1009.35 1008.60 1007.82 1007.06 1006.40 1005.90 1005.59 1005.44 1005.45 1005.55 1005.69 1005.80 1005.82 1005.73 1005.50 1005.16 1004.70 1004.19 1003.66 1003.15 1002.69 1002.30 1001.98 1001.72 1001.50 1001.29 1001.08 1000.84 1000.57 1000.27 999.96 999.65 999.37 999.15 999.02 998.98 999.04 999.21 999.47 999.81
1010.19 1010.23 1010.09 1009.75 1009.24 1008.60 1007.89 1007.19 1006.58 1006.11 1005.82 1005.72 1005.77 1005.93 1006.13 1006.30 1006.39 1006.34 1006.14 1005.78 1005.30 1004.73 1004.12 1003.53 1002.99 1002.54 1002.17 1001.89 1001.68 1001.52 1001.36 1001.20 1001.01 1000.78 1000.53 1000.27 1000.01 999.79 999.62 999.52 999.50 999.56 999.69 999.90
1009.43 1009.53 1009.49 1009.29 1008.92 1008.43 1007.86 1007.28 1006.77 1006.39 1006.16 1006.12 1006.22 1006.43 1006.69 1006.92 1007.06 1007.05 1006.87 1006.53 1006.03 1005.42 1004.76 1004.09 1003.47 1002.94 1002.52 1002.19 1001.96 1001.80 1001.67 1001.56 1001.43 1001.28 1001.10 1000.90 1000.68 1000.48 1000.30 1000.16 1000.06 1000.03 1000.05 1000.13
1008.54 1008.67 1008.72 1008.64 1008.43 1008.10 1007.70 1007.28 1006.90 1006.63 1006.49 1006.51 1006.66 1006.91 1007.21 1007.48 1007.66 1007.70 1007.56 1007.25 1006.77 1006.16 1005.48 1004.78 1004.11 1003.52 1003.03 1002.64 1002.37 1002.18 1002.05 1001.96 1001.87 1001.77 1001.64 1001.50 1001.33 1001.15 1000.97 1000.80 1000.65 1000.53 1000.44 1000.40
1007.69 1007.81 1007.89 1007.90 1007.82 1007.65 1007.41 1007.14 1006.90 1006.74 1006.69 1006.76 1006.95 1007.22 1007.54 1007.83 1008.05 1008.13 1008.05 1007.79 1007.37 1006.82 1006.17 1005.48 1004.80 1004.18 1003.64 1003.21 1002.89 1002.65 1002.50 1002.39 1002.31 1002.24 1002.15 1002.04 1001.91 1001.75 1001.57 1001.37 1001.17 1000.98 1000.80 1000.64
1007.01 1007.05 1007.12 1007.17 1007.17 1007.11 1007.00 1006.87 1006.76 1006.69 1006.70 1006.81 1007.01 1007.28 1007.59 1007.89 1008.12 1008.24 1008.22 1008.05 1007.72 1007.25 1006.68 1006.06 1005.43 1004.82 1004.28 1003.82 1003.45 1003.18 1002.98 1002.85 1002.76 1002.68 1002.61 1002.52 1002.40 1002.26 1002.07 1001.85 1001.60 1001.33 1001.06 1000.80
1006.55 1006.48 1006.48 1006.50 1006.53 1006.54 1006.53 1006.50 1006.47 1006.48 1006.54 1006.66 1006.85 1007.09 1007.37 1007.64 1007.87 1008.02 1008.06 1007.97 1007.75 1007.40 1006.96 1006.44 1005.90 1005.35 1004.84 1004.39 1004.01 1003.71 1003.47 1003.31 1003.19 1003.10 1003.02 1002.93 1002.82 1002.67 1002.48 1002.23 1001.93 1001.60 1001.24 1000.88
1006.34 1006.11 1005.99 1005.94 1005.95 1005.98 1006.02 1006.06 1006.11 1006.17 1006.25 1006.37 1006.54 1006.73 1006.96 1007.19 1007.39 1007.55 1007.63 1007.61 1007.50 1007.29 1006.98 1006.61 1006.19 1005.74 1005.30 1004.89 1004.52 1004.20 1003.95 1003.76 1003.61 1003.50 1003.41 1003.31 1003.20 1003.04 1002.82 1002.54 1002.20 1001.80 1001.37 1000.92
1006.30 1005.89 1005.62 1005.48 1005.43 1005.45 1005.52 1005.61 1005.71 1005.81 1005.92 1006.04 1006.17 1006.32 1006.49 1006.66 1006.82 1006.96 1007.06 1007.11 1007.09 1007.00 1006.84 1006.61 1006.32 1006.00 1005.65 1005.31 1004.97 1004.67 1004.41 1004.20 1004.03 1003.90 1003.79 1003.69 1003.56 1003.39 1003.16 1002.85 1002.47 1002.02 1001.52 1000.99
1006.32 1005.74 1005.32 1005.06 1004.94 1004.94 1005.02 1005.15 1005.31 1005.47 1005.61 1005.74 1005.86 1005.97 1006.08 1006.19 1006.30 1006.41 1006.52 1006.60 1006.65 1006.66 1006.62 1006.53 1006.38 1006.18 1005.94 1005.67 1005.39 1005.12 1004.87 1004.65 1004.47 1004.33 1004.20 1004.08 1003.94 1003.76 1003.52 1003.19 1002.78 1002.30 1001.75 1001.17
1006.27 1005.53 1004.98 1004.61 1004.43 1004.41 1004.52 1004.70 1004.92 1005.15 1005.35 1005.52 1005.66 1005.75 1005.83 1005.89 1005.95 1006.03 1006.11 1006.21 1006.31 1006.40 1006.45 1006.47 1006.44 1006.35 1006.21 1006.02 1005.79 1005.56 1005.33 1005.11 1004.92 1004.76 1004.62 1004.49 1004.35 1004.16 1003.92 1003.59 1003.18 1002.68 1002.12 1001.52
1006.02 1005.17 1004.52 1004.08 1003.86 1003.84 1003.98 1004.22 1004.53 1004.85 1005.13 1005.37 1005.54 1005.65 1005.72 1005.76 1005.79 1005.84 1005.91 1006.00 1006.12 1006.26 1006.38 1006.48 1006.54 1006.54 1006.47 1006.35 1006.18 1005.98 1005.76 1005.54 1005.35 1005.18 1005.03 1004.89 1004.75 1004.58 1004.34 1004.04 1003.65 1003.17 1002.63 1002.04
Thickness
5795 5785 5781 5791 5799 5800 5801 5800 5800 5813 5828 5818 5807 5808 5814 5819 5818 5814 5812 5809 5805 5802 5803 5802 5800 5798 5793 5789 5786 5782 5779 5777 5775 5771 5769 5766 5763 5763 5762 5761 5758 5756 5754 5752
5782 5778 5796 5806 5808 5803 5798 5792 5796 5809 5824 5815 5803 5802 5812 5816 5813 5812 5809 5805 5803 5799 5797 5794 5793 5791 5788 5783 5781 5778 5776 5773 5772 5770 5768 5766 5764 5762 5760 5759 5757 5754 5752 5750
5776 5791 5803 5798 5795 5790 5790 5787 5791 5797 5811 5814 5798 5789 5798 5808 5812 5811 5810 5807 5805 5799 5794 5790 5787 5786 5783 5779 5776 5775 5773 5771 5769 5768 5766 5764 5762 5759 5756 5754 5753 5752 5750 5748
5783 5799 5798 5791 5788 5789 5779 5798 5798 5797 5791 5784 5790 5767 5784 5793 5794 5799 5801 5802 5801 5799 5795 5790 5785 5782 5780 5779 5777 5774 5770 5768 5766 5765 5763 5759 5755 5752 5752 5752 5751 5750 5748 5746
5780 5794 5791 5785 5791 5794 5791 5805 5799 5795 5787 5780 5783 5770 5776 5789 5781 5785 5794 5798 5798 5797 5793 5789 5786 5781 5779 5778 5775 5771 5767 5764 5763 5762 5760 5757 5754 5752 5751 5750 5748 5746 5745 5744
5786 5803 5800 5795 5801 5801 5800 5796 5792 5790 5781 5758 5770 5764 5762 5778 5779 5783 5790 5793 5795 5794 5791 5787 5784 5781 5777 5775 5772 5768 5763 5760 5759 5757 5756 5753 5750 5748 5746 5744 5743 5741 5740 5740
5768 5784 5798 5800 5787 5792 5788 5769 5750 5746 5745 5750 5772 5761 5764 5781 5790 5791 5789 5789 5791 5790 5787 5780 5776 5774 5771 5769 5767 5764 5759 5755 5755 5754 5751 5750 5748 5746 5743 5741 5739 5737 5736 5734
5749 5756 5780 5787 5780 5776 5777 5769 5742 5729 5735 5747 5763 5754 5766 5787 5792 5795 5790 5787 5785 5782 5781 5776 5772 5769 5766 5764 5762 5758 5755 5751 5750 5749 5747 5746 5744 5743 5741 5739 5737 5735 5733 5732
5748 5751 5780 5786 5788 5781 5770 5769 5778 5760 5757 5751 5758 5765 5768 5780 5780 5782 5780 5777 5775 5773 5774 5771 5768 5766 5763 5759 5756 5754 5750 5747 5745 5744 5742 5741 5740 5739 5737 5736 5735 5732 5730 5730
5753 5742 5765 5779 5782 5783 5780 5776 5765 5749 5731 5732 5748 5751 5751 5758 5764 5768 5768 5767 5768 5768 5767 5764 5763 5761 5758 5755 5752 5749 5746 5743 5741 5740 5738 5737 5736 5735 5734 5733 5730 5728 5726 5724
5753 5737 5748 5758 5754 5756 5764 5761 5757 5750 5745 5729 5729 5739 5767 5761 5760 5759 5761 5763 5762 5761 5759 5758 5757 5755 5752 5749 5746 5743 5740 5738 5736 5735 5733 5732 5731 5730 5729 5728 5726 5724 5722 5720
5744 5735 5729 5744 5765 5771 5761 5756 5752 5734 5732 5738 5729 5732 5765 5763 5759 5757 5756 5757 5757 5756 5754 5753 5751 5748 5745 5741 5739 5736 5734 5732 5731 5730 5728 5726 5725 5724 5723 5722 5720 5719 5717 5715
5729 5720 5709 5721 5738 5748 5745 5751 5753 5748 5736 5727 5720 5724 5753 5752 5749 5750 5748 5746 5748 5747 5745 5743 5741 5738 5735 5734 5732 5730 5728 5726 5725 5724 5722 5720 5718 5717 5716 5715 5714 5713 5712 5710
5723 5713 5707 5703 5714 5725 5726 5736 5743 5738 5724 5721 5724 5724 5731 5734 5734 5736 5737 5736 5737 5736 5734 5731 5729 5728 5726 5725 5725 5723 5721 5720 5719 5718 5716 5713 5712 5711 5710 5710 5708 5707 5707 5705
5715 5705 5710 5717 5725 5727 5725 5728 5734 5731 5729 5723 5726 5725 5724 5727 5728 5728 5727 5726 5724 5723 5722 5719 5718 5717 5718 5717 5716 5715 5713 5712 5712 5710 5708 5707 5707 5706 5704 5704 5703 5702 5702 5701
5705 5696 5700 5703 5715 5719 5717 5721 5726 5729 5731 5728 5726 5723 5730 5727 5725 5721 5717 5715 5712 5711 5711 5711 5710 5709 5708 5709 5708 5707 5706 5705 5705 5703 5702 5702 5701 5699 5698 5697 5697 5696 5695 5695
5694 5686 5682 5686 5705 5705 5699 5712 5718 5720 5725 5725 5715 5715 5719 5714 5710 5707 5706 5705 5701 5701 5701 5702 5702 5702 5701 5702 5702 5700 5700 5699 5698 5696 5696 5695 5694 5693 5692 5692 5690 5689 5688 5688
5683 5678 5677 5680 5683 5671 5697 5717 5720 5717 5717 5720 5714 5713 5708 5704 5701 5699 5697 5694 5693 5693 5693 5694 5695 5696 5696 5697 5696 5694 5694 5692 5691 5690 5689 5689 5689 5688 5687 5685 5683 5682 5681 5680
5686 5675 5669 5668 5667 5677 5691 5702 5705 5702 5700 5708 5705 5702 5700 5700 5696 5690 5689 5688 5686 5685 5686 5687 5689 5690 5689 5689 5688 5687 5686 5685 5684 5683 5682 5683 5683 5681 5679 5677 5676 5675 5674 5673
5683 5677 5665 5663 5658 5659 5675 5694 5704 5699 5681 5694 5695 5692 5691 5692 5681 5675 5679 5679 5679 5679 5679 5680 5682 5682 5681 5681 5681 5679 5679 5678 5676 5676 5676 5677 5676 5674 5672 5671 5670 5668 5667 5666
5659 5660 5658 5656 5653 5659 5674 5686 5693 5670 5665 5682 5684 5683 5681 5676 5672 5670 5672 5671 5671 5671 5671 5672 5673 5672 5672 5673 5673 5671 5670 5669 5669 5670 5669 5669 5668 5667 5667 5665 5664 5662 5661 5660
5653 5651 5652 5653 5646 5646 5668 5672 5665 5660 5669 5673 5673 5673 5671 5668 5666 5665 5664 5662 5663 5662 5663 5663 5663 5663 5663 5664 5664 5662 5661 5663 5663 5662 5661 5661 5661 5661 5661 5659 5657 5656 5655 5654
5652 5650 5648 5643 5640 5650 5659 5659 5660 5662 5660 5661 5663 5664 5663 5660 5658 5657 5655 5654 5654 5654 5654 5654 5654 5653 5653 5654 5654 5652 5653 5654 5654 5654 5652 5652 5652 5652 5652 5651 5650 5649 5648 5647
5647 5652 5645 5639 5639 5644 5649 5652 5653 5653 5652 5654 5655 5656 5656 5652 5650 5648 5647 5646 5645 5645 5645 5645 5644 5643 5642 5643 5644 5644 5645 5646 5646 5645 5645 5644 5644 5644 5644 5643 5643 5641 5641 5640
5634 5638 5635 5631 5634 5636 5639 5641 5643 5643 5646 5647 5647 5647 5647 5645 5643 5641 5638 5637 5637 5637 5636 5636 5635 5634 5634 5634 5635 5636 5637 5637 5636 5636 5636 5636 5636 5636 5635 5635 5634 5634 5633 5634
5630 5628 5625 5623 5627 5626 5626 5634 5636 5634 5635 5637 5636 5635 5637 5637 5634 5633 5631 5630 5630 5629 5629 5628 5627 5626 5626 5626 5627 5628 5628 5628 5627 5627 5627 5627 5628 5629 5628 5628 5627 5626 5626 5625